Location: Kaseke
(18.0171°S, 31.0526°E)
Time: 12:45:37
(UTC+00:00)

CZ-3 R/B - Pass Details

Date: 14 July 2020
Orbit: 360 x 10251 km, 28.4° (Epoch: 07 August)

Event Time Altitude Azimuth Distance (km) Brightness Sun altitude
Rises 03:30:46 0° 310° (NW) 8,944 6.1 -13.5°
Reaches altitude 10° 03:39:52 10° 316° (NW) 6,045 5.3 -11.4°
Maximum altitude 03:52:12 34° 15° (NNE) 1,940 3.4 -8.7°
Drops below altitude 10° 03:56:48 10° 81° (E) 2,234 5.0 -7.6°
Sets 03:58:32 0° 92° (E) 2,813 5.4 -7.3°
